#timestamp,LO_Frequency,Hit,StdDev 
1638579615.2,286046996.6,P
1638579635.0,286046996.5,P
1638579635.9,286046996.5,P
1638579655.8,286046997.6,Y
1638579675.6,286047002.8,P
1638579695.4,286046999.7,N
1638579715.3,286047004.0,N
1638579735.1,286047005.4,N
1638579755.9,286047008.7,N
1638579775.7,286047005.0,N
1638579795.5,286047004.7,N
1638579815.4,286047004.6,N
1638579835.2,286047007.4,N
1638579855.1,286047006.5,N
1638579856.0,286047006.5,N
1638579875.8,286047008.2,N
1638579895.6,286047009.9,Y
1638579915.5,286047004.8,P
1638579935.3,286047005.6,P
1638579955.2,286047005.6,P
1638579975.9,286047003.1,Y
1638579995.7,286046999.7,P
1638580015.6,286047000.4,N
1638580035.4,286046998.6,N
1638580055.3,286046997.2,N
1638580075.1,286046996.3,N
1638580076.0,286046996.3,N
1638580095.8,286046994.8,N
1638580115.7,286046993.2,N
1638580135.5,286046992.4,N
1638580155.3,286046993.7,N
1638580175.2,286046995.2,N
1638580195.0,286046995.6,N
1638580195.9,286046995.6,N
1638580215.8,286046993.6,N
1638580235.6,286046995.3,N
1638580255.4,286046997.6,N
1638580275.3,286046997.8,N
1638580295.1,286046995.4,N
1638580315.9,286046994.1,N
1638580335.7,286046994.1,N
1638580355.5,286046993.8,N
1638580375.4,286046997.8,N
1638580395.2,286046997.8,N
1638580415.0,286046994.5,N
1638580416.0,286046994.5,N
1638580435.8,286046993.4,N
1638580455.6,286046994.1,N
1638580475.5,286046992.7,N
1638580495.3,286046990.3,Y
1638580515.1,286046993.3,P
1638580535.9,286046995.4,P
1638580555.7,286046993.7,P
1638580575.6,286046996.5,Y
1638580595.4,286047003.1,P
1638580615.2,286047001.4,N
1638580635.1,286047004.0,N
1638580636.0,286047004.0,N
1638580655.8,286047002.9,N
1638580675.7,286047005.8,N
1638580695.5,286047004.8,N
1638580715.3,286047007.6,N
1638580735.2,286047005.1,N
1638580755.0,286047005.6,N
1638580755.9,286047005.6,N
1638580775.7,286047003.4,N
1638580795.6,286047005.5,N
1638580815.4,286047004.2,N
1638580835.3,286047005.9,N
1638580855.1,286047005.4,N
1638580856.0,286047005.4,N
1638580875.8,286047004.9,N
1638580895.7,286047005.7,N
1638580915.5,286047001.9,N
1638580935.3,286047002.9,N
1638580955.2,286047004.6,N
1638580975.0,286047003.8,N
1638580975.9,286047003.8,N
1638580995.8,286047002.4,N
1638581015.6,286047002.5,N
1638581035.4,286047004.1,N
1638581055.3,286047003.6,N
1638581075.1,286047004.9,N
1638581095.9,286047004.8,N
1638581115.7,286047005.3,Y
1638581135.5,286047000.7,P
1638581155.4,286047002.0,N
1638581175.2,286047002.0,N
1638581195.0,286047001.7,N
1638581196.0,286047001.7,N
1638581215.8,286047001.3,N
1638581235.6,286047002.0,N
1638581255.5,286047002.7,N
1638581275.3,286047001.9,N
1638581295.1,286047002.1,N
1638581315.9,286047001.9,N
1638581335.7,286047001.5,N
1638581355.6,286047000.1,N
1638581375.4,286047000.2,N
1638581395.2,286047004.1,Y
1638581415.1,286047004.2,P
1638581416.0,286047004.2,P
1638581435.8,286047001.4,N
1638581455.6,286047001.3,N
1638581475.5,286047004.2,Y
1638581495.3,286047000.5,P
1638581515.2,286046999.7,N
1638581535.9,286047004.0,P
1638581555.7,286047004.1,N
1638581575.6,286047002.0,N
1638581595.4,286047000.5,N
1638581615.3,286047001.1,N
1638581635.1,286047000.5,N
1638581636.0,286047000.5,N
1638581655.8,286047002.2,N
1638581675.7,286047001.7,N
1638581695.5,286047003.4,N
1638581715.3,286047006.9,Y
1638581735.2,286047004.9,P
1638581755.0,286047007.1,P
1638581755.9,286047007.1,P
1638581775.8,286047005.6,N
1638581795.6,286047003.9,N
1638581815.4,286047000.5,N
1638581835.3,286047001.5,N
1638581855.1,286047002.4,N
1638581875.8,286047002.7,N
1638581895.7,286047001.8,N
1638581915.5,286046999.8,N
1638581935.4,286047002.4,N
1638581955.2,286047002.1,N
1638581975.0,286047001.6,N
1638581975.9,286047001.6,N
1638581995.8,286047003.2,N
1638582015.6,286047004.4,N
1638582035.5,286047001.7,N
1638582055.3,286047003.9,N
1638582075.1,286047002.2,N
1638582095.9,286047002.5,N
1638582115.7,286046998.1,N
1638582135.5,286047000.3,N
1638582155.4,286047002.8,N
1638582175.2,286047000.0,N
1638582195.1,286046998.1,N
1638582196.0,286046998.1,N
1638582215.8,286046999.8,N
1638582235.6,286047003.7,N
1638582255.5,286047001.6,N
1638582275.3,286047000.7,N
1638582295.1,286046999.4,N
1638582315.9,286047000.7,N
1638582335.7,286047002.4,N
1638582355.6,286047002.8,N
1638582375.4,286046999.1,N
1638582395.2,286046998.2,N
1638582415.1,286047002.2,N
1638582416.0,286047002.2,N
1638582435.8,286047001.1,N
1638582455.7,286047002.2,N
1638582475.5,286047000.0,N
1638582495.3,286046998.6,N
1638582515.2,286046998.6,N
1638582535.0,286046998.4,N
1638582535.9,286046998.4,N
1638582555.7,286047000.9,N
1638582575.6,286046999.9,N
1638582595.4,286046996.7,N
1638582615.3,286046999.6,N
1638582635.1,286046998.7,N
1638582636.0,286046998.7,N
1638582655.8,286046996.7,N
1638582675.7,286046999.5,N
1638582695.5,286046998.7,N
1638582715.3,286047001.1,N
1638582735.2,286047000.4,N
1638582755.0,286047002.4,N
1638582755.9,286047002.4,N
1638582775.8,286046999.8,N
1638582795.6,286046999.7,N
1638582815.4,286047000.2,N
1638582835.3,286047002.8,N
1638582855.1,286047002.6,N
1638582875.9,286047004.4,N
1638582895.7,286047002.3,N
1638582915.5,286047000.9,N
1638582935.4,286046999.0,N
1638582955.2,286047001.0,N
1638582975.0,286046999.5,N
1638582975.9,286046999.5,N
1638582995.8,286047011.9,Y
1638583015.6,286046998.8,P
1638583035.5,286047001.2,N
1638583055.3,286047001.2,N
1638583075.1,286046998.3,N
1638583095.9,286046999.7,N
1638583115.7,286047002.7,N
1638583135.6,286047002.4,N
1638583155.4,286047002.8,N
1638583175.2,286046999.9,N
1638583195.1,286047002.1,N
1638583196.0,286047002.1,N
